Canton, GA

3:13 PM EDT on October 18, 2019 (GMT -0400)
Canton

Weather History for KCNI - September, 2019

Change the Weather History Date:

Tuesday, September 17, 2019

  Actual Average (KMGE) Record (KMGE)
Temperature  
Mean Temperature 80 °F -  
Max Temperature 95 °F 79 °F 96 °F (2019)
Min Temperature 64 °F 61 °F 53 °F (1999)
Cooling Degree Days 14    
Growing Degree Days 30 (Base 50)    
Moisture  
Dew Point 62 °F    
Average Humidity 61    
Maximum Humidity 100    
Minimum Humidity 26    
Precipitation  
Precipitation 0.00 in - - ()
Sea Level Pressure  
Sea Level Pressure 30.03 in    
Wind  
Wind Speed 1 mph (NW)    
Max Wind Speed 12 mph    
Max Gust Speed -    
Visibility 10 miles    
Events      
Averages and records for this station are not official NWS values.
T = Trace of Precipitation, MM = Missing Value Source: NWS Daily Summary

Daily Weather History Graph

Daily Weather History Graph

Search for Another Location

Airport or City:

Astronomy

Sep. 17, 2019 Rise Set
Actual Time 7:22 AM EDT 7:41 PM EDT
Civil Twilight 6:56 AM EDT 8:06 PM EDT
Nautical Twilight 6:27 AM EDT 8:36 PM EDT
Astronomical Twilight 5:57 AM EDT 9:06 PM EDT
Moon 9:52 PM EDT (9/17) 10:18 AM EDT (9/17)
Length of Visible Light 13h 09m
Length of Day
12h 19m
Waning Gibbous, 89% of the Moon is Illuminated
Sep 17
Waning Gibbous
Sep 21
Last Quarter
Sep 28
New
Oct 5
First Quarter
Oct 13
Full

Hourly Weather History & Observations

Time (EDT) Temp. Heat Index Dew Point Humidity Pressure Visibility Wind Dir Wind Speed Gust Speed Precip Events Conditions
12:10 AM 71.6 °F - 62.6 °F 73% 30.06 in 10.0 mi Calm Calm - N/A   Clear
12:30 AM 71.6 °F - 62.6 °F 73% 30.06 in 10.0 mi Calm Calm - N/A   Clear
12:50 AM 69.8 °F - 64.4 °F 83% 30.05 in 10.0 mi Calm Calm - N/A   Clear
1:10 AM 71.6 °F - 62.6 °F 73% 30.05 in 10.0 mi Calm Calm - N/A   Clear
1:30 AM 69.8 °F - 64.4 °F 83% 30.06 in 10.0 mi Calm Calm - N/A   Clear
1:50 AM 69.8 °F - 64.4 °F 83% 30.05 in 10.0 mi Calm Calm - N/A   Clear
2:10 AM 68.0 °F - 64.4 °F 88% 30.05 in 10.0 mi Calm Calm - N/A   Clear
2:30 AM 66.2 °F - 64.4 °F 94% 30.05 in 10.0 mi Calm Calm - N/A   Clear
2:50 AM 68.0 °F - 66.2 °F 94% 30.04 in 10.0 mi Calm Calm - N/A   Clear
3:10 AM 68.0 °F - 64.4 °F 88% 30.04 in 10.0 mi Calm Calm - N/A   Clear
3:30 AM 68.0 °F - 64.4 °F 88% 30.03 in 10.0 mi Calm Calm - N/A   Clear
3:50 AM 64.4 °F - 64.4 °F 100% 30.03 in 10.0 mi Calm Calm - N/A   Clear
4:10 AM 66.2 °F - 62.6 °F 88% 30.03 in 10.0 mi Calm Calm - N/A   Clear
4:30 AM 64.4 °F - 64.4 °F 100% 30.03 in 10.0 mi Calm Calm - N/A   Clear
4:50 AM 68.0 °F - 64.4 °F 88% 30.02 in 10.0 mi Calm Calm - N/A   Clear
5:10 AM 64.4 °F - 62.6 °F 94% 30.02 in 10.0 mi Calm Calm - N/A   Clear
5:30 AM 64.4 °F - 62.6 °F 94% 30.03 in 10.0 mi Calm Calm - N/A   Clear
5:50 AM 64.4 °F - 62.6 °F 94% 30.03 in 10.0 mi Calm Calm - N/A   Clear
6:10 AM 64.4 °F - 62.6 °F 94% 30.03 in 10.0 mi Calm Calm - N/A   Clear
6:30 AM 64.4 °F - 64.4 °F 100% 30.04 in 10.0 mi Calm Calm - N/A   Clear
6:50 AM 66.2 °F - 62.6 °F 88% 30.05 in 10.0 mi Calm Calm - N/A   Clear
7:30 AM 68.0 °F - 62.6 °F 83% 30.05 in 10.0 mi Calm Calm - N/A   Clear
7:50 AM 64.4 °F - 62.6 °F 94% 30.06 in 10.0 mi Calm Calm - N/A   Clear
8:10 AM 64.4 °F - 62.6 °F 94% 30.06 in 10.0 mi Calm Calm - N/A   Clear
8:30 AM 66.2 °F - 62.6 °F 88% 30.06 in 10.0 mi Calm Calm - N/A   Clear
8:50 AM 69.8 °F - 62.6 °F 78% 30.06 in 10.0 mi Calm Calm - N/A   Clear
9:10 AM 71.6 °F - 62.6 °F 73% 30.06 in 10.0 mi Calm Calm - N/A   Clear
9:30 AM 73.4 °F - 62.6 °F 69% 30.07 in 10.0 mi Calm Calm - N/A   Clear
9:50 AM 78.8 °F - 64.4 °F 61% 30.07 in 10.0 mi Calm Calm - N/A   Clear
10:10 AM 80.6 °F 82.3 °F 64.4 °F 58% 30.07 in 10.0 mi Calm Calm - N/A   Clear
10:30 AM 86.0 °F 86.6 °F 62.6 °F 45% 30.07 in 10.0 mi Calm Calm - N/A   Mostly Cloudy
10:50 AM 87.8 °F 88.5 °F 62.6 °F 43% 30.07 in 10.0 mi North 3.5 mph - N/A   Scattered Clouds
11:10 AM 89.6 °F 90.1 °F 62.6 °F 40% 30.08 in 10.0 mi NW 4.6 mph - N/A   Scattered Clouds
11:30 AM 87.8 °F 88.5 °F 62.6 °F 43% 30.07 in 10.0 mi WNW 4.6 mph - N/A   Scattered Clouds
11:50 AM 89.6 °F 90.1 °F 62.6 °F 40% 30.07 in 10.0 mi NNW 3.5 mph - N/A   Clear
12:10 PM 91.4 °F 91.4 °F 60.8 °F 36% 30.06 in 10.0 mi North 5.8 mph - N/A   Clear
12:30 PM 91.4 °F 91.4 °F 60.8 °F 36% 30.06 in 10.0 mi North 3.5 mph - N/A   Clear
12:50 PM 91.4 °F 91.4 °F 60.8 °F 36% 30.05 in 10.0 mi NNE 9.2 mph - N/A   Clear
1:10 PM 93.2 °F 92.6 °F 59.0 °F 32% 30.05 in 10.0 mi NNW 4.6 mph - N/A   Clear
1:30 PM 95.0 °F 94.4 °F 59.0 °F 30% 30.04 in 10.0 mi NNW 5.8 mph - N/A   Clear
1:50 PM 91.4 °F 91.4 °F 60.8 °F 36% 30.03 in 10.0 mi NW 5.8 mph - N/A   Scattered Clouds
2:10 PM 91.4 °F 90.7 °F 59.0 °F 34% 30.03 in 10.0 mi North 3.5 mph - N/A   Scattered Clouds
2:50 PM 95.0 °F 94.4 °F 59.0 °F 30% 30.01 in 10.0 mi NW 3.5 mph - N/A   Scattered Clouds
3:10 PM 93.2 °F 92.6 °F 59.0 °F 32% 30.01 in 10.0 mi West 9.2 mph - N/A   Scattered Clouds
3:30 PM 95.0 °F 93.7 °F 57.2 °F 28% 30.00 in 10.0 mi West 9.2 mph - N/A   Clear
3:50 PM 95.0 °F 94.4 °F 59.0 °F 30% 29.99 in 10.0 mi North 4.6 mph - N/A   Clear
4:10 PM 95.0 °F 93.7 °F 57.2 °F 28% 29.98 in 10.0 mi WNW 8.1 mph - N/A   Clear
4:30 PM 95.0 °F 93.0 °F 55.4 °F 26% 29.98 in 10.0 mi NW 6.9 mph - N/A   Clear
4:50 PM 95.0 °F 93.0 °F 55.4 °F 26% 29.98 in 10.0 mi NW 9.2 mph - N/A   Clear
5:10 PM 93.2 °F 91.3 °F 55.4 °F 28% 29.98 in 10.0 mi NNW 5.8 mph - N/A   Clear
5:30 PM 93.2 °F 91.3 °F 55.4 °F 28% 29.98 in 10.0 mi NW 11.5 mph - N/A   Clear
5:50 PM 93.2 °F 91.3 °F 55.4 °F 28% 29.98 in 10.0 mi NNW 4.6 mph - N/A   Clear
6:10 PM 93.2 °F 91.9 °F 57.2 °F 30% 29.98 in 10.0 mi NW 6.9 mph - N/A   Clear
6:30 PM 91.4 °F 90.7 °F 59.0 °F 34% 29.98 in 10.0 mi Calm Calm - N/A   Clear
6:50 PM 91.4 °F 91.4 °F 60.8 °F 36% 29.98 in 10.0 mi Calm Calm - N/A   Clear
7:10 PM 89.6 °F 89.5 °F 60.8 °F 38% 29.98 in 10.0 mi Calm Calm - N/A   Clear
7:35 PM 87.8 °F 87.1 °F 59.0 °F 38% 29.98 in 10.0 mi Calm Calm - N/A   Clear
7:50 PM 86.0 °F 86.1 °F 60.8 °F 43% 29.98 in 10.0 mi Calm Calm - N/A   Clear
8:10 PM 86.0 °F 86.1 °F 60.8 °F 43% 29.98 in 10.0 mi Calm Calm - N/A   Clear
8:30 PM 86.0 °F 86.1 °F 60.8 °F 43% 29.99 in 10.0 mi Calm Calm - N/A   Clear
8:50 PM 82.4 °F 83.4 °F 62.6 °F 51% 30.00 in 10.0 mi Calm Calm - N/A   Clear
9:10 PM 80.6 °F 81.8 °F 62.6 °F 54% 30.00 in 10.0 mi Calm Calm - N/A   Clear
9:30 PM 78.8 °F - 62.6 °F 57% 30.01 in 10.0 mi Calm Calm - N/A   Clear
9:50 PM 77.0 °F - 64.4 °F 65% 30.01 in 10.0 mi Calm Calm - N/A   Clear
10:10 PM 78.8 °F - 64.4 °F 61% 30.01 in 10.0 mi Calm Calm - N/A   Scattered Clouds
10:30 PM 78.8 °F - 64.4 °F 61% 30.02 in 10.0 mi Calm Calm - N/A   Clear
10:50 PM 75.2 °F - 66.2 °F 73% 30.02 in 10.0 mi Calm Calm - N/A   Clear
11:10 PM 75.2 °F - 66.2 °F 73% 30.02 in 10.0 mi Calm Calm - N/A   Clear
11:30 PM 73.4 °F - 66.2 °F 78% 30.02 in 10.0 mi Calm Calm - N/A   Clear
11:50 PM 73.4 °F - 64.4 °F 73% 30.02 in 10.0 mi Calm Calm - N/A   Clear